Weather History for Leonardtown, MD

Change the Weather History Date:

Tuesday, February 5, 2013

  Actual Average (KNHK) Record (KNHK)
Temperature  
Mean Temperature 39 °F -  
Max Temperature 48 °F 37 °F 39 °F (2014)
Min Temperature 30 °F 24 °F 32 °F (2014)
Degree Days  
Heating Degree Days 26    
Moisture  
Dew Point 28 °F    
Average Humidity 68    
Maximum Humidity 93    
Minimum Humidity 46    
Precipitation  
Precipitation 0.00 in - - ()
Sea Level Pressure  
Sea Level Pressure 29.90 in    
Wind  
Wind Speed 4 mph (WSW)    
Max Wind Speed 7 mph    
Max Gust Speed -    
Visibility 9 miles    
Events      
Averages and records for this station are not official NWS values.
T = Trace of Precipitation, MM = Missing Value Source: NWS Daily Summary

Daily Weather History Graph

Daily Weather History Graph

Search for Another Location

Airport:

Trip Planner

Search our weather history database for the weather conditions in past years. The results will help you decide how hot, cold, wet, or windy it might be!

Date:

Astronomy

Feb. 05, 2013 Rise Set
Actual Time 7:07 AM EST 5:33 PM EST
Civil Twilight 6:39 AM EST 6:01 PM EST
Nautical Twilight 6:08 AM EST 6:32 PM EST
Astronomical Twilight 5:37 AM EST 7:03 PM EST
Moon 2:45 AM EST (2/5) 12:50 PM EST (2/5)
Length of Visible Light 11h 21m
Length of Day
10h 26m
Waning Crescent, 27% of the Moon is Illuminated
Feb 5
Waning Crescent
Feb 10
New
Feb 17
First Quarter
Feb 25
Full
Mar 4
Last Quarter

Hourly Weather History & Observations

Time (EST) Temp. Windchill Dew Point Humidity Pressure Visibility Wind Dir Wind Speed Gust Speed Precip Events Conditions
12:08 AM 37.4 °F 32.8 °F 23.0 °F 56% 29.93 in 10.0 mi SSW 5.8 mph - N/A   Overcast
12:51 AM 39.2 °F 34.2 °F 23.0 °F 52% 29.92 in 10.0 mi SW 6.9 mph - N/A   Overcast
1:12 AM 39.2 °F 35.0 °F 23.0 °F 52% 29.91 in 10.0 mi SW 5.8 mph - N/A   Overcast
1:33 AM 37.4 °F 32.8 °F 26.6 °F 65% 29.91 in 10.0 mi SSW 5.8 mph - N/A   Overcast
1:55 AM 39.2 °F 35.0 °F 26.6 °F 61% 29.91 in 10.0 mi SW 5.8 mph - N/A   Overcast
2:16 AM 37.4 °F 32.1 °F 24.8 °F 60% 29.90 in 10.0 mi SW 6.9 mph - N/A   Scattered Clouds
2:37 AM 37.4 °F 33.8 °F 26.6 °F 65% 29.90 in 10.0 mi SW 4.6 mph - N/A   Scattered Clouds
2:38 AM 37.4 °F 33.8 °F 26.6 °F 65% 29.90 in 10.0 mi SW 4.6 mph - N/A   Scattered Clouds
2:59 AM 37.4 °F 33.8 °F 26.6 °F 65% 29.91 in 10.0 mi SW 4.6 mph - N/A   Mostly Cloudy
3:20 AM 37.4 °F 33.8 °F 26.6 °F 65% 29.90 in 10.0 mi SW 4.6 mph - N/A   Scattered Clouds
4:03 AM 37.4 °F 33.8 °F 26.6 °F 65% 29.90 in 10.0 mi SW 4.6 mph - N/A   Scattered Clouds
4:24 AM 37.4 °F 34.9 °F 26.6 °F 65% 29.89 in 10.0 mi SSW 3.5 mph - N/A   Scattered Clouds
4:46 AM 37.4 °F 32.8 °F 26.6 °F 65% 29.88 in 10.0 mi South 5.8 mph - N/A   Scattered Clouds
6:11 AM 37.4 °F - 26.6 °F 65% 29.88 in 10.0 mi Calm Calm - N/A   Mostly Cloudy
6:32 AM 37.4 °F 34.9 °F 26.6 °F 65% 29.89 in 10.0 mi SSW 3.5 mph - N/A   Mostly Cloudy
6:53 AM 37.4 °F - 26.6 °F 65% 29.89 in 10.0 mi Calm Calm - N/A   Scattered Clouds
7:15 AM 37.4 °F 33.8 °F 26.6 °F 65% 29.91 in 10.0 mi SSW 4.6 mph - N/A   Clear
7:57 AM 39.2 °F 37.0 °F 26.6 °F 61% 29.91 in 10.0 mi SW 3.5 mph - N/A   Clear
8:19 AM 39.2 °F - 28.4 °F 65% 29.91 in 10.0 mi Calm Calm - N/A   Clear
8:40 AM 41.0 °F - 28.4 °F 61% 29.92 in 10.0 mi Calm Calm - N/A   Clear
9:01 AM 41.0 °F 39.0 °F 28.4 °F 61% 29.92 in 10.0 mi WSW 3.5 mph - N/A   Clear
9:22 AM 42.8 °F 40.1 °F 28.4 °F 57% 29.93 in 10.0 mi WSW 4.6 mph - N/A   Scattered Clouds
9:44 AM 42.8 °F 41.1 °F 28.4 °F 57% 29.94 in 10.0 mi West 3.5 mph - N/A   Clear
10:05 AM 44.6 °F 40.7 °F 28.4 °F 53% 29.93 in 10.0 mi West 6.9 mph - N/A   Clear
10:26 AM 44.6 °F 41.4 °F 28.4 °F 53% 29.93 in 10.0 mi West 5.8 mph - N/A   Clear
10:48 AM 46.4 °F - 28.4 °F 50% 29.92 in 10.0 mi Calm Calm - N/A   Clear
11:09 AM 48.2 °F - 28.4 °F 46% 29.92 in 10.0 mi North 5.8 mph - N/A   Clear
11:51 AM 44.6 °F 42.2 °F 28.4 °F 53% 29.92 in 10.0 mi NNW 4.6 mph - N/A   Mostly Cloudy
12:13 PM 42.8 °F 41.1 °F 26.6 °F 53% 29.92 in 10.0 mi North 3.5 mph - N/A   Overcast
12:34 PM 42.8 °F 41.1 °F 26.6 °F 53% 29.90 in 10.0 mi NNW 3.5 mph - N/A   Scattered Clouds
12:55 PM 42.8 °F - 26.6 °F 53% 29.89 in 10.0 mi Calm Calm - N/A   Clear
1:16 PM 44.6 °F - 28.4 °F 53% 29.88 in 10.0 mi Calm Calm - N/A   Scattered Clouds
1:59 PM 44.6 °F - 30.2 °F 57% 29.87 in 10.0 mi Calm Calm - N/A   Scattered Clouds
2:20 PM 44.6 °F 43.1 °F 30.2 °F 57% 29.87 in 10.0 mi NE 3.5 mph - N/A   Clear
2:41 PM 42.8 °F 39.3 °F 30.2 °F 61% 29.87 in 10.0 mi NNE 5.8 mph - N/A   Clear
3:03 PM 42.8 °F 41.1 °F 28.4 °F 57% 29.86 in 10.0 mi NNE 3.5 mph - N/A   Clear
3:24 PM 42.8 °F - 28.4 °F 57% 29.86 in 10.0 mi Calm Calm - N/A   Clear
3:45 PM 42.8 °F 41.1 °F 28.4 °F 57% 29.87 in 10.0 mi NNE 3.5 mph - N/A   Clear
4:07 PM 41.0 °F 39.0 °F 28.4 °F 61% 29.87 in 10.0 mi North 3.5 mph - N/A   Clear
4:28 PM 41.0 °F - 28.4 °F 61% 29.87 in 10.0 mi Calm Calm - N/A   Clear
4:49 PM 39.2 °F - 28.4 °F 65% 29.87 in 10.0 mi Calm Calm - N/A   Clear
5:10 PM 37.4 °F - 28.4 °F 70% 29.87 in 10.0 mi Calm Calm - N/A   Clear
5:32 PM 37.4 °F - 30.2 °F 75% 29.88 in 10.0 mi Calm Calm - N/A   Clear
5:53 PM 35.6 °F - 30.2 °F 81% 29.88 in 10.0 mi Calm Calm - N/A   Clear
6:14 PM 35.6 °F - 30.2 °F 81% 29.89 in - Calm Calm - N/A   Clear
6:36 PM 35.6 °F - 30.2 °F 81% 29.90 in 10.0 mi Calm Calm - N/A   Clear
6:57 PM 35.6 °F - 32.0 °F 87% 29.91 in 10.0 mi Calm Calm - N/A   Clear
7:18 PM 35.6 °F - 32.0 °F 87% 29.90 in 10.0 mi Calm Calm - N/A   Clear
7:39 PM 33.8 °F - 30.2 °F 87% 29.90 in 10.0 mi Calm Calm - N/A   Clear
8:01 PM 33.8 °F - 30.2 °F 87% 29.90 in 10.0 mi Calm Calm - N/A   Clear
8:22 PM 33.8 °F - 30.2 °F 87% 29.90 in 10.0 mi Calm Calm - N/A   Clear
8:43 PM 33.8 °F - 30.2 °F 87% 29.91 in 7.0 mi Calm Calm - N/A   Clear
9:04 PM 32.0 °F - 30.2 °F 93% 29.91 in 7.0 mi Calm Calm - N/A   Clear
9:26 PM 32.0 °F - 30.2 °F 93% 29.92 in 7.0 mi Calm Calm - N/A   Clear
9:47 PM 32.0 °F - 30.2 °F 93% 29.92 in 5.0 mi Calm Calm - N/A   Mostly Cloudy
10:08 PM 32.0 °F - 30.2 °F 93% 29.92 in 7.0 mi Calm Calm - N/A   Scattered Clouds
10:30 PM 32.0 °F - 30.2 °F 93% 29.92 in 7.0 mi Calm Calm - N/A   Clear
10:51 PM 32.0 °F - 30.2 °F 93% 29.93 in 5.0 mi Calm Calm - N/A   Clear
11:12 PM 30.2 °F - 28.4 °F 93% 29.94 in 5.0 mi Calm Calm - N/A   Clear
11:34 PM 32.0 °F - 28.4 °F 87% 29.93 in 4.0 mi Calm Calm - N/A   Clear
11:55 PM 30.2 °F - 28.4 °F 93% 29.94 in 4.0 mi Calm Calm - N/A   Clear